User: anonymous   Login
Location: Poughquag
(41.6090°N, 73.6820°W)
Time: 17:17:28
(UTC-04:00)
Language:

Altair - Orbit

View from above orbital plane
View from above orbital plane
View from above satellite
View from above satellite

Ground track
Ground track

The orbit data is extracted from the following two-line orbital elements,

1 00050U 60009B   24145.79292043 -.00000101  00000-0 -15498-3 0  9996
2 00050  47.2342 340.1851 0113149 289.5015  69.3582 12.20140254845719
Epoch (UTC): 24 May 2024 19:01:48
Eccentricity: 0.0113149
inclination: 47.2342°
perigee height: 1502 km
apogee height: 1682 km
right ascension of ascending node: 340.1851°
argument of perigee: 289.5015°
revolutions per day: 12.20140254
mean anomaly at epoch: 69.3582°
orbit number at epoch: 84571

The dashed part of the orbit path shows where the satellite is in the earth's shadow,  

DLR